Tracking 27380 objects as of 6-Jun-2023
HD Live streaming from Space Station
objects crossing your sky now

BREEZE-M DEB

Track BREEZE-M DEB now!
10-day predictions


NORAD ID: 37200
Int'l Code: 2008-011E
Perigee: 1,226.9 km
Apogee: 26,451.9 km
Inclination: 48.6 °
Period: 476.6 minutes
Semi major axis: 20210 km
RCS: 1.4407 m2 (large)
Launch date: March 14, 2008
Source: Commonwealth of Independent States (former USSR) (CIS)
Launch site: TYURATAM MISSILE AND SPACE COMPLEX (TTMTR)

Note: This is SATELLITE DEBRIS
Your satellite tracking list
Your tracking list is empty




NASA's NSSDC Master Catalog

Two Line Element Set (TLE):
1 37200U 08011E   23155.68310228  .00000078  00000-0  00000-0 0  9993
2 37200  48.6024 175.3563 6240593 134.9545 297.5019  3.02161761139461
Source of the keplerian elements: AFSPC